Probability
0 0 0 0 0 0 0 0 0 0 0 0 0 0 0 0 0 0 0 0 0 0 0 0 0 0 0 0 0 0 0 0 0 0 0 0 0 0 0 0 0 0 0
0 0 0 0 0 0 0 0 0 0 0 0 0 0 0 0 0 0 0 0 0 0 0 0 0 0 0 0 0 0 0 0 0 0 0 0 0 0 0 0 0 0 0
0 0 0 0 0 0 0 0 0 0 0 0 0 0 0 0 0 0 0 0 0 0 0 0 0 0 0 0 0 0 0 0 0 0 0 0 0 0 0 0 0 0 0
0 0 0 0 0 0 0 0 0 0 0 0 0 0 0 0 0 0 0 0 0 0 0 0 0 0 0 0 0 0 0 0 0 0 0 0 0 0 0 0 0 0 0
0 0 0 0 0 0 0 0 0 0 0 0 0 0 0 0 0 0 0 0 0 0 0 0 0 0 0 0 0 0 0 0 0 0 0 0 0 0 0 0 0 0 0
0 0 0 0 0 0 0 0 0 0 0 0 0 0 0 0 0 0 0 0 0 0 0 0 0 0 0 0 0 0 0 0 0 0 0 0 0 0 0 0 0 0 0
0 0 0 0 0 0 0 0 0 0 0 0 0 0 0 0 0 0 0 0 0 0 0 0 0 0 0 0 0 0 0 0 0 0 0 0 0 0 0 0 0 0 0
0 0 0 0 0 0 0 0 0 0 0 0 0 0 0 0 0 0 0 0 0 0 0 0 0 0 0 1 1 1 0 0 0 0 0 0 0 0 0 0 0 0 0
0 0 0 0 0 0 0 0 0 0 0 0 0 0 0 0 0 0 0 0 0 0 0 0 0 0 0 1 2 1 0 0 0 0 0 2 3 2 0 0 0 0 0
0 0 0 0 0 0 0 1 1 1 1 0 0 1 1 0 1 2 4 7 6 2 0 0 1 1 1 1 3 3 2 0 0 0 1 8 14 8 1 0 0 0 0
0 0 0 0 0 0 1 2 2 2 2 1 0 1 2 1 1 4 13 24 20 8 2 2 3 3 2 1 6 11 6 0 0 1 7 23 32 19 4 0 0 0 0
0 0 0 0 1 1 2 3 3 4 5 3 1 2 4 4 2 4 19 37 34 17 10 10 11 8 6 6 14 19 10 1 2 4 19 45 51 27 6 1 0 0 0
0 0 0 2 5 7 8 8 7 9 10 9 7 9 16 21 18 17 28 41 41 34 30 31 29 19 14 17 21 20 12 7 9 13 31 59 58 29 8 1 1 0 0
0 0 1 5 13 21 22 22 19 16 15 17 21 25 35 45 42 39 47 49 49 55 58 57 51 39 32 31 27 20 15 16 19 25 43 60 55 29 8 3 2 2 2
0 2 7 15 28 41 47 45 37 29 23 24 30 36 44 53 51 48 55 59 59 68 75 74 69 62 58 51 39 29 24 25 30 36 45 55 52 31 10 3 4 4 4
6 12 22 32 45 59 65 62 50 38 30 28 31 35 38 43 44 44 49 56 62 71 79 81 80 79 78 70 57 46 40 38 40 41 41 47 49 34 14 6 5 5 5
21 31 42 49 58 67 67 61 49 36 27 26 27 28 28 31 36 40 43 48 59 70 78 84 86 87 87 82 73 63 55 52 50 47 44 44 43 33 22 17 14 11 9
41 52 60 61 63 65 62 53 40 26 21 19 18 15 15 19 24 30 33 39 50 62 73 82 88 91 92 89 82 74 68 64 60 55 50 47 45 38 33 33 33 28 22
61 66 71 67 61 56 51 42 28 17 13 10 6 4 6 9 11 12 16 23 31 44 57 70 82 90 94 91 85 80 76 74 70 63 59 57 54 48 41 42 46 41 35
77 76 70 61 51 43 36 27 17 9 6 3 1 1 2 3 2 2 4 7 12 21 34 49 65 78 85 86 83 79 77 75 74 74 73 70 64 54 46 47 51 48 43
84 76 60 47 38 32 26 19 12 6 3 1 0 0 1 1 0 0 0 1 3 8 17 29 44 55 62 70 74 72 67 66 71 78 82 79 70 61 54 53 57 59 59
75 63 47 36 29 26 24 20 15 9 4 1 0 0 0 0 0 1 1 1 1 4 8 17 28 32 37 50 62 63 54 48 53 66 79 81 75 68 61 55 59 67 71
54 47 38 33 29 28 28 25 20 15 8 3 1 1 1 1 0 1 1 1 1 2 4 10 15 18 24 36 50 57 50 37 35 48 67 78 78 73 65 58 58 64 68
37 34 30 31 34 36 39 39 31 19 9 5 4 4 3 2 0 0 0 0 0 1 3 4 5 9 17 26 39 53 55 47 41 42 53 66 74 74 71 67 65 65 66
29 24 23 32 42 48 55 60 52 34 20 14 11 8 5 2 1 0 0 0 0 0 1 1 2 5 10 17 28 42 52 59 60 55 49 54 64 69 74 77 77 73 71
27 20 20 34 50 58 66 73 68 52 35 25 20 13 6 3 2 1 0 0 0 0 0 0 1 2 5 11 22 33 45 58 68 64 53 51 55 61 74 83 83 78 76
Wind_Speed
12 17 19 15 13 12 13 13 14 15 15 14 14 13 12 12 11 10 10 9 8 8 8 8 8 8 8 8 9 9 9 9 8 8 8 8 7 7 7 7 6 8 10
15 18 19 15 14 13 13 13 13 14 14 14 13 12 12 11 10 10 9 8 8 7 7 7 7 6 7 7 8 8 8 8 8 8 8 8 7 5 6 4 3 7 9
16 18 18 15 14 13 13 13 13 13 13 13 12 12 11 11 10 9 9 8 7 7 6 6 6 5 5 6 6 7 7 7 7 7 7 8 9 7 5 4 2 7 7
17 17 16 17 15 14 13 13 13 13 13 12 12 11 10 10 9 9 8 7 6 6 6 5 5 5 5 5 5 5 6 6 6 7 8 4 7 10 7 6 5 6 7
15 15 16 17 15 14 13 13 12 12 12 12 11 10 10 9 9 8 7 7 6 5 5 5 5 5 4 4 4 5 5 5 6 10 5 3 3 10 7 7 8 8 8
15 15 17 17 16 15 14 13 12 12 12 11 11 10 10 9 9 8 7 7 6 6 6 5 5 5 5 5 5 5 5 6 8 11 6 6 5 9 8 9 10 10 10
15 14 17 17 16 15 14 13 12 12 11 11 11 10 10 9 9 8 8 7 7 7 6 6 6 6 7 7 7 7 8 8 11 9 6 8 5 9 8 10 11 12 13
14 14 16 16 14 14 13 12 12 11 11 11 11 11 10 10 9 9 9 9 9 9 8 8 8 8 8 8 9 9 9 11 12 11 9 9 5 8 8 11 12 13 14
13 12 13 15 14 13 11 11 11 11 11 11 11 10 10 10 10 10 10 10 10 10 10 10 10 10 10 10 10 10 11 11 13 10 10 8 9 10 11 12 13 13 14
11 11 11 12 13 12 13 13 11 11 11 11 11 11 11 11 12 12 12 13 12 12 12 12 12 12 12 12 12 12 12 12 14 14 9 7 12 11 13 13 14 14 14
10 9 11 11 10 10 10 11 12 12 12 11 12 13 12 11 12 12 14 10 11 12 13 13 13 13 12 14 15 14 13 10 13 10 8 6 13 13 14 15 15 15 15
12 11 10 9 9 9 7 7 8 10 10 11 9 10 9 9 8 8 2 7 11 14 14 15 15 14 14 11 13 15 9 12 12 9 8 11 13 14 16 16 16 16 16
12 11 11 10 9 9 6 5 5 5 5 8 9 9 8 7 7 7 6 8 11 13 12 12 14 11 11 8 7 8 10 9 7 8 7 13 14 15 17 17 17 17 17
11 11 10 10 9 8 6 5 5 5 5 6 7 8 7 6 7 7 6 8 7 6 7 8 7 9 10 10 11 12 12 9 8 7 6 10 13 15 17 17 17 17 16
10 10 10 9 9 8 7 5 6 6 6 6 6 7 8 7 8 8 7 7 9 8 8 8 9 9 10 11 11 12 13 12 11 10 6 9 13 15 16 17 16 16 16
10 10 9 10 9 8 7 6 6 6 5 7 6 7 8 7 8 8 9 9 9 9 8 8 10 9 9 9 11 12 13 13 12 11 11 9 14 16 16 17 17 16 16
10 9 9 9 10 10 9 8 6 6 6 5 5 7 8 8 8 9 9 9 9 9 10 9 11 9 10 10 12 12 12 13 13 13 12 10 9 14 18 18 17 16 16
8 8 9 8 9 9 7 6 5 5 4 5 5 6 7 8 9 8 8 9 9 9 9 9 9 9 10 10 10 10 11 10 14 14 13 12 10 10 13 18 18 17 17
7 8 8 8 7 6 6 5 5 3 4 5 5 5 6 7 8 9 8 8 9 9 9 10 8 9 10 11 11 11 11 11 12 14 15 15 13 12 12 11 16 17 17
7 7 7 7 6 5 5 4 3 3 3 3 4 4 6 7 8 8 9 9 10 10 9 9 10 10 10 10 12 12 11 12 12 14 15 14 13 15 15 14 11 13 19
8 7 6 6 7 5 4 3 3 3 3 3 4 4 6 7 7 7 9 8 9 9 10 12 11 12 11 10 10 11 12 15 15 13 13 13 15 16 15 14 12 11 10
7 6 6 6 6 6 4 3 2 2 3 3 4 3 5 6 7 7 7 9 9 8 10 11 11 11 11 9 9 10 11 11 13 15 13 14 15 13 15 16 15 13 12
5 5 3 4 5 6 5 5 3 4 5 4 4 3 4 6 7 7 8 9 9 10 9 10 11 13 12 11 10 10 10 11 10 10 12 12 12 12 13 13 15 14 14
2 1 2 4 5 6 7 7 7 5 5 4 4 4 5 6 6 7 8 8 9 9 10 11 11 10 12 12 11 11 13 14 12 11 9 10 12 12 13 11 12 13 13
3 4 5 6 6 7 8 8 7 8 6 4 4 5 6 6 6 6 7 8 8 9 10 11 11 12 11 12 12 11 12 12 14 13 12 10 9 10 11 11 10 9 9
7 6 6 6 7 7 8 8 8 8 7 7 7 7 6 5 5 6 7 7 9 9 10 11 11 13 12 13 12 12 12 11 11 12 13 12 11 9 8 6 6 6 6
Wind_Direction
153 140 145 155 152 144 136 133 133 134 133 133 133 135 135 134 131 127 122 118 114 111 110 110 108 105 105 106 110 113 116 117 118 118 116 110 106 107 116 128 171 133 120
144 140 147 156 154 148 141 136 135 135 135 135 136 138 138 138 135 132 129 127 123 118 115 115 115 112 110 112 115 119 124 128 132 134 137 135 126 118 124 144 298 104 140
144 142 152 158 156 152 145 141 140 140 140 140 141 142 142 142 141 139 138 135 131 128 125 125 126 126 125 127 129 133 137 142 148 153 190 172 138 146 150 155 122 127 155
146 147 156 155 159 156 152 149 148 147 147 147 147 148 148 148 148 149 148 146 145 142 141 143 145 144 145 147 150 153 157 162 170 190 215 158 150 145 173 176 174 171 175
145 148 147 158 163 160 158 157 157 156 155 155 156 157 157 158 159 160 160 163 166 166 166 170 172 170 170 172 174 177 181 188 196 231 224 202 169 141 183 191 192 193 192
150 156 148 165 166 165 164 165 166 166 165 165 166 167 168 169 172 174 177 182 189 193 196 199 200 198 196 198 201 205 210 214 227 230 213 222 206 151 193 203 201 202 203
156 156 151 167 169 170 171 172 174 176 176 177 178 179 181 183 187 192 196 201 208 214 219 222 222 221 216 214 215 217 222 227 250 256 235 232 220 151 204 222 215 211 209
158 160 148 165 173 175 177 179 183 186 188 189 190 192 194 198 204 210 214 217 220 224 227 229 231 231 230 228 227 227 227 238 243 245 239 240 186 161 220 237 233 225 217
160 159 157 167 174 180 184 189 192 196 199 202 204 206 208 212 217 222 226 229 229 229 230 231 231 232 232 231 231 232 234 236 260 257 245 237 166 186 226 240 243 241 235
165 168 168 176 174 182 185 191 200 206 210 213 217 219 221 225 227 228 232 226 232 238 238 238 237 236 235 234 233 233 235 235 244 249 239 216 165 198 226 238 242 244 245
173 179 181 180 178 192 197 180 194 206 213 219 220 220 228 237 234 217 227 216 228 241 245 246 245 243 241 235 232 233 233 240 243 249 249 176 169 206 229 237 240 241 244
179 186 187 196 180 198 206 187 209 213 206 219 234 227 228 243 260 267 225 212 239 247 250 247 247 247 241 242 223 216 233 237 249 246 235 174 186 215 232 237 239 240 241
182 188 189 192 189 203 208 218 219 230 225 227 236 244 252 264 259 254 252 220 225 232 241 234 232 238 240 240 252 235 241 252 249 252 239 178 196 219 233 238 239 240 240
186 189 193 186 194 207 220 222 231 239 237 245 238 245 251 253 261 266 265 270 264 251 249 257 254 251 254 254 248 252 250 242 249 256 252 190 204 222 235 239 239 239 239
189 194 193 193 194 198 208 230 234 246 254 248 257 254 258 260 263 268 270 268 271 272 262 254 259 263 258 256 254 252 254 254 250 248 248 209 212 224 235 242 242 241 239
196 197 192 197 197 199 205 215 232 245 245 265 261 264 267 270 273 276 273 270 269 268 267 266 263 261 259 257 256 257 259 258 253 250 251 235 215 220 230 239 243 242 240
198 199 195 199 201 204 213 219 230 239 248 261 271 274 275 276 279 279 279 275 271 273 271 266 263 260 256 252 252 253 253 253 254 250 249 251 240 222 223 229 236 239 241
202 193 197 204 201 203 213 227 244 262 278 280 284 286 289 293 290 287 281 281 285 279 273 266 260 258 256 256 257 254 252 251 251 249 245 241 243 247 232 222 226 231 237
195 191 194 201 200 199 201 215 238 254 269 281 288 296 309 301 300 294 290 289 287 280 274 272 269 262 262 259 257 252 251 249 249 249 246 244 241 240 248 234 218 223 231
173 175 183 180 183 184 188 196 228 247 261 273 292 304 303 300 303 303 293 294 293 286 280 275 275 267 263 263 265 264 257 253 249 246 245 242 240 240 240 244 236 222 221
159 159 168 166 162 175 181 201 210 231 262 281 290 311 301 304 308 299 296 302 290 287 290 290 284 275 266 262 263 262 257 250 247 246 242 244 240 237 239 241 243 246 229
154 153 165 169 169 187 183 206 230 274 276 299 303 301 295 304 305 297 302 297 295 294 286 282 280 279 276 265 259 266 265 254 238 237 236 235 241 240 236 234 235 237 247
162 165 174 184 184 202 199 209 205 223 243 249 276 282 298 304 302 303 300 296 299 289 286 287 285 276 275 272 259 258 266 266 267 245 231 235 239 241 242 240 234 234 235
211 197 225 232 220 216 216 226 233 253 274 301 298 303 302 290 296 299 296 295 292 290 290 283 279 281 275 272 264 253 256 272 279 273 247 231 230 238 245 246 242 234 232
322 297 270 256 243 232 232 233 237 248 261 275 286 288 288 291 287 290 295 294 291 287 288 287 285 277 272 270 272 268 260 256 253 258 263 258 238 229 230 236 242 245 242
343 316 288 271 259 249 241 242 243 256 264 277 280 290 286 290 289 291 292 290 288 289 289 284 281 275 268 268 268 266 262 257 251 246 248 250 250 244 233 236 243 245 245